Year,Month,Day,Hour,Minute,Value (Times are PST for temperature in C)
2014,08,20,00,00,12.10
2014,08,20,00,01,12.10
2014,08,20,00,02,12.10
2014,08,20,00,03,12.10
2014,08,20,00,04,12.10
2014,08,20,00,05,12.00
2014,08,20,00,06,12.00
2014,08,20,00,07,11.90
2014,08,20,00,08,11.90
2014,08,20,00,09,11.90
2014,08,20,00,10,11.90
2014,08,20,00,11,11.90
2014,08,20,00,12,11.90
2014,08,20,00,13,11.90
2014,08,20,00,14,11.90
2014,08,20,00,15,11.90
2014,08,20,00,16,11.90
2014,08,20,00,17,11.90
2014,08,20,00,18,11.90
2014,08,20,00,19,11.90
2014,08,20,00,20,11.90
2014,08,20,00,21,11.90
2014,08,20,00,22,11.90
2014,08,20,00,23,11.90
2014,08,20,00,24,11.80
2014,08,20,00,25,11.80
2014,08,20,00,26,11.80
2014,08,20,00,27,11.80
2014,08,20,00,28,11.80
2014,08,20,00,29,11.80
2014,08,20,00,30,11.80
2014,08,20,00,31,11.80
2014,08,20,00,32,11.70
2014,08,20,00,33,11.80
2014,08,20,00,34,11.70
2014,08,20,00,35,11.80
2014,08,20,00,36,11.80
2014,08,20,00,37,11.80
2014,08,20,00,38,11.80
2014,08,20,00,39,11.80
2014,08,20,00,40,11.70
2014,08,20,00,41,11.70
2014,08,20,00,42,11.70
2014,08,20,00,43,11.80
2014,08,20,00,44,11.80
2014,08,20,00,45,11.80
2014,08,20,00,46,11.80
2014,08,20,00,47,11.80
2014,08,20,00,48,11.80
2014,08,20,00,49,11.80
2014,08,20,00,50,11.80
2014,08,20,00,51,11.80
2014,08,20,00,52,11.80
2014,08,20,00,53,11.80
2014,08,20,00,54,11.80
2014,08,20,00,55,11.80
2014,08,20,00,56,11.80
2014,08,20,00,57,11.70
2014,08,20,00,58,11.70
2014,08,20,00,59,11.70
2014,08,20,01,00,11.70
2014,08,20,01,01,11.70
2014,08,20,01,02,11.70
2014,08,20,01,03,11.60
2014,08,20,01,04,11.60
2014,08,20,01,05,11.60
2014,08,20,01,06,11.60
2014,08,20,01,07,11.50
2014,08,20,01,08,11.50
2014,08,20,01,09,11.50
2014,08,20,01,10,11.50
2014,08,20,01,11,11.40
2014,08,20,01,12,11.40
2014,08,20,01,13,11.30
2014,08,20,01,14,11.30
2014,08,20,01,15,11.30
2014,08,20,01,16,11.30
2014,08,20,01,17,11.20
2014,08,20,01,18,11.20
2014,08,20,01,19,11.20
2014,08,20,01,20,11.20
2014,08,20,01,21,11.20
2014,08,20,01,22,11.10
2014,08,20,01,23,11.10
2014,08,20,01,24,11.10
2014,08,20,01,25,11.10
2014,08,20,01,26,11.10
2014,08,20,01,27,11.10
2014,08,20,01,28,11.10
2014,08,20,01,29,11.10
2014,08,20,01,30,11.10
2014,08,20,01,31,11.10
2014,08,20,01,32,11.10
2014,08,20,01,33,11.10
2014,08,20,01,34,11.10
2014,08,20,01,35,11.10
2014,08,20,01,36,11.20
2014,08,20,01,37,11.20
2014,08,20,01,38,11.20
2014,08,20,01,39,11.20
2014,08,20,01,40,11.20
2014,08,20,01,41,11.10
2014,08,20,01,42,11.10
2014,08,20,01,43,11.10
2014,08,20,01,44,11.10
2014,08,20,01,45,11.00
2014,08,20,01,46,11.00
2014,08,20,01,47,10.90
2014,08,20,01,48,10.90
2014,08,20,01,49,10.90
2014,08,20,01,50,10.80
2014,08,20,01,51,10.80
2014,08,20,01,52,10.80
2014,08,20,01,53,10.80
2014,08,20,01,54,10.70
2014,08,20,01,55,10.80
2014,08,20,01,56,10.80
2014,08,20,01,57,10.80
2014,08,20,01,58,10.80
2014,08,20,01,59,10.80
2014,08,20,02,00,10.80
2014,08,20,02,01,10.80
2014,08,20,02,02,10.70
2014,08,20,02,03,10.70
2014,08,20,02,04,10.70
2014,08,20,02,05,10.70
2014,08,20,02,06,10.70
2014,08,20,02,07,10.70
2014,08,20,02,08,10.80
2014,08,20,02,09,10.80
2014,08,20,02,10,10.80
2014,08,20,02,11,10.80
2014,08,20,02,12,10.80
2014,08,20,02,13,10.80
2014,08,20,02,14,10.80
2014,08,20,02,15,10.80
2014,08,20,02,16,10.80
2014,08,20,02,17,10.80
2014,08,20,02,18,10.80
2014,08,20,02,19,10.80
2014,08,20,02,20,10.80
2014,08,20,02,21,10.70
2014,08,20,02,22,10.70
2014,08,20,02,23,10.70
2014,08,20,02,24,10.70
2014,08,20,02,25,10.70
2014,08,20,02,26,10.60
2014,08,20,02,27,10.60
2014,08,20,02,28,10.60
2014,08,20,02,29,10.50
2014,08,20,02,30,10.50
2014,08,20,02,31,10.50
2014,08,20,02,32,10.40
2014,08,20,02,33,10.40
2014,08,20,02,34,10.40
2014,08,20,02,35,10.50
2014,08,20,02,36,10.50
2014,08,20,02,37,10.60
2014,08,20,02,38,10.60
2014,08,20,02,39,10.60
2014,08,20,02,40,10.60
2014,08,20,02,41,10.60
2014,08,20,02,42,10.60
2014,08,20,02,43,10.60
2014,08,20,02,44,10.60
2014,08,20,02,45,10.60
2014,08,20,02,46,10.70
2014,08,20,02,47,10.70
2014,08,20,02,48,10.60
2014,08,20,02,49,10.60
2014,08,20,02,50,10.60
2014,08,20,02,51,10.60
2014,08,20,02,52,10.60
2014,08,20,02,53,10.50
2014,08,20,02,54,10.50
2014,08,20,02,55,10.50
2014,08,20,02,56,10.40
2014,08,20,02,57,10.40
2014,08,20,02,58,10.40
2014,08,20,02,59,10.40
2014,08,20,03,00,10.40
2014,08,20,03,01,10.40
2014,08,20,03,02,10.40
2014,08,20,03,03,10.40
2014,08,20,03,04,10.30
2014,08,20,03,05,10.30
2014,08,20,03,06,10.30
2014,08,20,03,07,10.30
2014,08,20,03,08,10.40
2014,08,20,03,09,10.40
2014,08,20,03,10,10.50
2014,08,20,03,11,10.50
2014,08,20,03,12,10.60
2014,08,20,03,13,10.60
2014,08,20,03,14,10.70
2014,08,20,03,15,10.70
2014,08,20,03,16,10.70
2014,08,20,03,17,10.70
2014,08,20,03,18,10.80
2014,08,20,03,19,10.80
2014,08,20,03,20,10.80
2014,08,20,03,21,10.80
2014,08,20,03,22,10.80
2014,08,20,03,23,10.80
2014,08,20,03,24,10.80
2014,08,20,03,25,10.80
2014,08,20,03,26,10.80
2014,08,20,03,27,10.80
2014,08,20,03,28,10.80
2014,08,20,03,29,10.80
2014,08,20,03,30,10.70
2014,08,20,03,31,10.70
2014,08,20,03,32,10.70
2014,08,20,03,33,10.70
2014,08,20,03,34,10.60
2014,08,20,03,35,10.60
2014,08,20,03,36,10.60
2014,08,20,03,37,10.60
2014,08,20,03,38,10.60
2014,08,20,03,39,10.60
2014,08,20,03,40,10.70
2014,08,20,03,41,10.70
2014,08,20,03,42,10.70
2014,08,20,03,43,10.70
2014,08,20,03,44,10.70
2014,08,20,03,45,10.70
2014,08,20,03,46,10.70
2014,08,20,03,47,10.80
2014,08,20,03,48,10.80
2014,08,20,03,49,10.80
2014,08,20,03,50,10.80
2014,08,20,03,51,10.90
2014,08,20,03,52,10.90
2014,08,20,03,53,10.90
2014,08,20,03,54,11.00
2014,08,20,03,55,11.00
2014,08,20,03,56,11.10
2014,08,20,03,57,11.10
2014,08,20,03,58,11.20
2014,08,20,03,59,11.20
2014,08,20,04,00,11.20
2014,08,20,04,01,11.30
2014,08,20,04,02,11.30
2014,08,20,04,03,11.30
2014,08,20,04,04,11.40
2014,08,20,04,05,11.40
2014,08,20,04,06,11.40
2014,08,20,04,07,11.40
2014,08,20,04,08,11.50
2014,08,20,04,09,11.50
2014,08,20,04,10,11.60
2014,08,20,04,11,11.60
2014,08,20,04,12,11.70
2014,08,20,04,13,11.70
2014,08,20,04,14,11.70
2014,08,20,04,15,11.80
2014,08,20,04,16,11.80
2014,08,20,04,17,11.80
2014,08,20,04,18,11.80
2014,08,20,04,19,11.80
2014,08,20,04,20,11.90
2014,08,20,04,21,11.90
2014,08,20,04,22,11.90
2014,08,20,04,23,11.90
2014,08,20,04,24,11.90
2014,08,20,04,25,11.90
2014,08,20,04,26,11.90
2014,08,20,04,27,11.90
2014,08,20,04,28,11.90
2014,08,20,04,29,11.90
2014,08,20,04,30,11.90
2014,08,20,04,31,11.90
2014,08,20,04,32,11.90
2014,08,20,04,33,11.90
2014,08,20,04,34,11.90
2014,08,20,04,35,11.90
2014,08,20,04,36,11.90
2014,08,20,04,37,11.90
2014,08,20,04,38,11.90
2014,08,20,04,39,11.90
2014,08,20,04,40,11.90
2014,08,20,04,41,11.90
2014,08,20,04,42,11.90
2014,08,20,04,43,11.90
2014,08,20,04,44,11.90
2014,08,20,04,45,11.90
2014,08,20,04,46,11.90
2014,08,20,04,47,11.90
2014,08,20,04,48,11.90
2014,08,20,04,49,11.90
2014,08,20,04,50,11.90
2014,08,20,04,51,11.90
2014,08,20,04,52,11.90
2014,08,20,04,53,11.80
2014,08,20,04,54,11.80
2014,08,20,04,55,11.80
2014,08,20,04,56,11.80
2014,08,20,04,57,11.80
2014,08,20,04,58,11.80
2014,08,20,04,59,11.80
2014,08,20,05,00,11.80
2014,08,20,05,01,11.70
2014,08,20,05,02,11.70
2014,08,20,05,03,11.70
2014,08,20,05,04,11.70
2014,08,20,05,05,11.70
2014,08,20,05,06,11.70
2014,08,20,05,07,11.70
2014,08,20,05,08,11.70
2014,08,20,05,09,11.70
2014,08,20,05,10,11.70
2014,08,20,05,11,11.70
2014,08,20,05,12,11.60
2014,08,20,05,13,11.60
2014,08,20,05,14,11.60
2014,08,20,05,15,11.60
2014,08,20,05,16,11.60
2014,08,20,05,17,11.60
2014,08,20,05,18,11.50
2014,08,20,05,19,11.50
2014,08,20,05,20,11.50
2014,08,20,05,21,11.50
2014,08,20,05,22,11.50
2014,08,20,05,23,11.50
2014,08,20,05,24,11.40
2014,08,20,05,25,11.40
2014,08,20,05,26,11.40
2014,08,20,05,27,11.40
2014,08,20,05,28,11.40
2014,08,20,05,29,11.30
2014,08,20,05,30,11.30
2014,08,20,05,31,11.30
2014,08,20,05,32,11.30
2014,08,20,05,33,11.30
2014,08,20,05,34,11.30
2014,08,20,05,35,11.20
2014,08,20,05,36,11.20
2014,08,20,05,37,11.20
2014,08,20,05,38,11.20
2014,08,20,05,39,11.20
2014,08,20,05,40,11.10
2014,08,20,05,41,11.10
2014,08,20,05,42,11.00
2014,08,20,05,43,11.00
2014,08,20,05,44,11.00
2014,08,20,05,45,10.90
2014,08,20,05,46,10.90
2014,08,20,05,47,10.90
2014,08,20,05,48,10.90
2014,08,20,05,49,10.90
2014,08,20,05,50,10.90
2014,08,20,05,51,10.80
2014,08,20,05,52,10.80
2014,08,20,05,53,10.80
2014,08,20,05,54,10.80
2014,08,20,05,55,10.80
2014,08,20,05,56,10.80
2014,08,20,05,57,10.80
2014,08,20,05,58,10.80
2014,08,20,05,59,10.70
2014,08,20,06,00,10.80
2014,08,20,06,01,10.80
2014,08,20,06,02,10.80
2014,08,20,06,03,10.80
2014,08,20,06,04,10.80
2014,08,20,06,05,10.80
2014,08,20,06,06,10.80
2014,08,20,06,07,10.80
2014,08,20,06,08,10.80
2014,08,20,06,09,10.80
2014,08,20,06,10,10.80
2014,08,20,06,11,10.80
2014,08,20,06,12,10.80
2014,08,20,06,13,10.80
2014,08,20,06,14,10.80
2014,08,20,06,15,10.80
2014,08,20,06,16,10.80
2014,08,20,06,17,10.80
2014,08,20,06,18,10.80
2014,08,20,06,19,10.80
2014,08,20,06,20,10.80
2014,08,20,06,21,10.70
2014,08,20,06,22,10.70
2014,08,20,06,23,10.70
2014,08,20,06,24,10.70
2014,08,20,06,25,10.70
2014,08,20,06,26,10.70
2014,08,20,06,27,10.80
2014,08,20,06,28,10.80
2014,08,20,06,29,10.80
2014,08,20,06,30,10.80
2014,08,20,06,31,10.80
2014,08,20,06,32,10.80
2014,08,20,06,33,10.80
2014,08,20,06,34,10.80
2014,08,20,06,35,10.80
2014,08,20,06,36,10.80
2014,08,20,06,37,10.80
2014,08,20,06,38,10.80
2014,08,20,06,39,10.80
2014,08,20,06,40,10.80
2014,08,20,06,41,10.80
2014,08,20,06,42,10.80
2014,08,20,06,43,10.80
2014,08,20,06,44,10.70
2014,08,20,06,45,10.70
2014,08,20,06,46,10.80
2014,08,20,06,47,10.80
2014,08,20,06,48,10.80
2014,08,20,06,49,10.80
2014,08,20,06,50,10.80
2014,08,20,06,51,10.80
2014,08,20,06,52,10.80
2014,08,20,06,53,10.80
2014,08,20,06,54,10.80
2014,08,20,06,55,10.70
2014,08,20,06,56,10.70
2014,08,20,06,57,10.70
2014,08,20,06,58,10.70
2014,08,20,06,59,10.70
2014,08,20,07,00,10.70
2014,08,20,07,01,10.70
2014,08,20,07,02,10.80
2014,08,20,07,03,10.80
2014,08,20,07,04,10.80
2014,08,20,07,05,10.80
2014,08,20,07,06,10.80
2014,08,20,07,07,10.80
2014,08,20,07,08,10.80
2014,08,20,07,09,10.90
2014,08,20,07,10,10.90
2014,08,20,07,11,10.90
2014,08,20,07,12,10.90
2014,08,20,07,13,10.90
2014,08,20,07,14,10.90
2014,08,20,07,15,10.90
2014,08,20,07,16,10.90
2014,08,20,07,17,10.90
2014,08,20,07,18,10.90
2014,08,20,07,19,10.90
2014,08,20,07,20,10.90
2014,08,20,07,21,10.90
2014,08,20,07,22,10.90
2014,08,20,07,23,10.90
2014,08,20,07,24,10.90
2014,08,20,07,25,10.90
2014,08,20,07,26,10.90
2014,08,20,07,27,10.90
2014,08,20,07,28,10.80
2014,08,20,07,29,10.80
2014,08,20,07,30,10.80
2014,08,20,07,31,10.80
2014,08,20,07,32,10.80
2014,08,20,07,33,10.80
2014,08,20,07,34,10.80
2014,08,20,07,35,10.80
2014,08,20,07,36,10.80
2014,08,20,07,37,10.80
2014,08,20,07,38,10.90
2014,08,20,07,39,10.90
2014,08,20,07,40,10.90
2014,08,20,07,41,10.90
2014,08,20,07,42,11.00
2014,08,20,07,43,11.00
2014,08,20,07,44,11.00
2014,08,20,07,45,11.10
2014,08,20,07,46,11.10
2014,08,20,07,47,11.10
2014,08,20,07,48,11.20
2014,08,20,07,49,11.20
2014,08,20,07,50,11.30
2014,08,20,07,51,11.30
2014,08,20,07,52,11.30
2014,08,20,07,53,11.40
2014,08,20,07,54,11.40
2014,08,20,07,55,11.40
2014,08,20,07,56,11.50
2014,08,20,07,57,11.50
2014,08,20,07,58,11.60
2014,08,20,07,59,11.60
2014,08,20,08,00,11.60
2014,08,20,08,01,11.60
2014,08,20,08,02,11.70
2014,08,20,08,03,11.70
2014,08,20,08,04,11.70
2014,08,20,08,05,11.70
2014,08,20,08,06,11.70
2014,08,20,08,07,11.80
2014,08,20,08,08,11.80
2014,08,20,08,09,11.80
2014,08,20,08,10,11.80
2014,08,20,08,11,11.80
2014,08,20,08,12,11.80
2014,08,20,08,13,11.80
2014,08,20,08,14,11.80
2014,08,20,08,15,11.80
2014,08,20,08,16,11.80
2014,08,20,08,17,11.80
2014,08,20,08,18,11.80
2014,08,20,08,19,11.70
2014,08,20,08,20,11.70
2014,08,20,08,21,11.70
2014,08,20,08,22,11.70
2014,08,20,08,23,11.70
2014,08,20,08,24,11.70
2014,08,20,08,25,11.80
2014,08,20,08,26,11.80
2014,08,20,08,27,11.80
2014,08,20,08,28,11.80
2014,08,20,08,29,11.90
2014,08,20,08,30,11.90
2014,08,20,08,31,12.00
2014,08,20,08,32,12.00
2014,08,20,08,33,12.00
2014,08,20,08,34,12.10
2014,08,20,08,35,12.20
2014,08,20,08,36,12.20
2014,08,20,08,37,12.30
2014,08,20,08,38,12.40
2014,08,20,08,39,12.50
2014,08,20,08,40,12.60
2014,08,20,08,41,12.70
2014,08,20,08,42,12.80
2014,08,20,08,43,12.90
2014,08,20,08,44,12.90
2014,08,20,08,45,13.00
2014,08,20,08,46,13.10
2014,08,20,08,47,13.20
2014,08,20,08,48,13.30
2014,08,20,08,49,13.40
2014,08,20,08,50,13.50
2014,08,20,08,51,13.60
2014,08,20,08,52,13.70
2014,08,20,08,53,13.80
2014,08,20,08,54,13.90
2014,08,20,08,55,14.00
2014,08,20,08,56,14.10
2014,08,20,08,57,14.20
2014,08,20,08,58,14.20
2014,08,20,08,59,14.30
2014,08,20,09,00,14.30
2014,08,20,09,01,14.30
2014,08,20,09,02,14.40
2014,08,20,09,03,14.50
2014,08,20,09,04,14.50
2014,08,20,09,05,14.60
2014,08,20,09,06,14.60
2014,08,20,09,07,14.70
2014,08,20,09,08,14.70
2014,08,20,09,09,14.80
2014,08,20,09,10,14.80
2014,08,20,09,11,14.90
2014,08,20,09,12,15.00
2014,08,20,09,13,15.00
2014,08,20,09,14,15.10
2014,08,20,09,15,15.10
2014,08,20,09,16,15.20
2014,08,20,09,17,15.30
2014,08,20,09,18,15.30
2014,08,20,09,19,15.30
2014,08,20,09,20,15.40
2014,08,20,09,21,15.40
2014,08,20,09,22,15.40
2014,08,20,09,23,15.40
2014,08,20,09,24,15.40
2014,08,20,09,25,15.40
2014,08,20,09,26,15.40
2014,08,20,09,27,15.40
2014,08,20,09,28,15.40
2014,08,20,09,29,15.40
2014,08,20,09,30,15.40
2014,08,20,09,31,15.40
2014,08,20,09,32,15.40
2014,08,20,09,33,15.40
2014,08,20,09,34,15.50
2014,08,20,09,35,15.50
2014,08,20,09,36,15.50
2014,08,20,09,37,15.60
2014,08,20,09,38,15.60
2014,08,20,09,39,15.60
2014,08,20,09,40,15.60
2014,08,20,09,41,15.60
2014,08,20,09,42,15.60
2014,08,20,09,43,15.50
2014,08,20,09,44,15.50
2014,08,20,09,45,15.50
2014,08,20,09,46,15.60
2014,08,20,09,47,15.70
2014,08,20,09,48,15.80
2014,08,20,09,49,15.80
2014,08,20,09,50,15.80
2014,08,20,09,51,15.80
2014,08,20,09,52,15.80
2014,08,20,09,53,15.80
2014,08,20,09,54,15.70
2014,08,20,09,55,15.70
2014,08,20,09,56,15.60
2014,08,20,09,57,15.60
2014,08,20,09,58,15.60
2014,08,20,09,59,15.60
2014,08,20,10,00,15.50
2014,08,20,10,01,15.50
2014,08,20,10,02,15.50
2014,08,20,10,03,15.50
2014,08,20,10,04,15.50
2014,08,20,10,05,15.50
2014,08,20,10,06,15.60
2014,08,20,10,07,15.60
2014,08,20,10,08,15.70
2014,08,20,10,09,15.80
2014,08,20,10,10,15.80
2014,08,20,10,11,15.90
2014,08,20,10,12,16.00
2014,08,20,10,13,16.00
2014,08,20,10,14,16.10
2014,08,20,10,15,16.00
2014,08,20,10,16,15.90
2014,08,20,10,17,15.90
2014,08,20,10,18,15.80
2014,08,20,10,19,15.70
2014,08,20,10,20,15.70
2014,08,20,10,21,15.70
2014,08,20,10,22,15.80
2014,08,20,10,23,15.80
2014,08,20,10,24,15.90
2014,08,20,10,25,16.00
2014,08,20,10,26,16.00
2014,08,20,10,27,16.00
2014,08,20,10,28,16.00
2014,08,20,10,29,16.10
2014,08,20,10,30,16.00
2014,08,20,10,31,16.00
2014,08,20,10,32,16.10
2014,08,20,10,33,16.10
2014,08,20,10,34,16.20
2014,08,20,10,35,16.20
2014,08,20,10,36,16.30
2014,08,20,10,37,16.30
2014,08,20,10,38,16.30
2014,08,20,10,39,16.40
2014,08,20,10,40,16.50
2014,08,20,10,41,16.50
2014,08,20,10,42,16.60
2014,08,20,10,43,16.60
2014,08,20,10,44,16.70
2014,08,20,10,45,16.80
2014,08,20,10,46,17.00
2014,08,20,10,47,17.30
2014,08,20,10,48,17.50
2014,08,20,10,49,17.80
2014,08,20,10,50,18.00
2014,08,20,10,51,18.10
2014,08,20,10,52,18.20
2014,08,20,10,53,18.30
2014,08,20,10,54,18.30
2014,08,20,10,55,18.40
2014,08,20,10,56,18.40
2014,08,20,10,57,18.40
2014,08,20,10,58,18.40
2014,08,20,10,59,18.40
2014,08,20,11,00,18.40
2014,08,20,11,01,18.50
2014,08,20,11,02,18.50
2014,08,20,11,03,18.50
2014,08,20,11,04,18.60
2014,08,20,11,05,18.60
2014,08,20,11,06,18.70
2014,08,20,11,07,18.80
2014,08,20,11,08,19.00
2014,08,20,11,09,19.00
2014,08,20,11,10,19.00
2014,08,20,11,11,19.00
2014,08,20,11,12,19.00
2014,08,20,11,13,19.00
2014,08,20,11,14,19.00
2014,08,20,11,15,19.00
2014,08,20,11,16,19.00
2014,08,20,11,17,19.00
2014,08,20,11,18,19.10
2014,08,20,11,19,19.20
2014,08,20,11,20,19.20
2014,08,20,11,21,19.30
2014,08,20,11,22,19.40
2014,08,20,11,23,19.40
2014,08,20,11,24,19.50
2014,08,20,11,25,19.60
2014,08,20,11,26,19.60
2014,08,20,11,27,19.60
2014,08,20,11,28,19.70
2014,08,20,11,29,19.80
2014,08,20,11,30,19.80
2014,08,20,11,31,19.80
2014,08,20,11,32,19.80
2014,08,20,11,33,19.80
2014,08,20,11,34,19.90
2014,08,20,11,35,19.90
2014,08,20,11,36,19.90
2014,08,20,11,37,20.00
2014,08,20,11,38,20.00
2014,08,20,11,39,20.00
2014,08,20,11,40,20.00
2014,08,20,11,41,20.10
2014,08,20,11,42,20.10
2014,08,20,11,43,20.20
2014,08,20,11,44,20.20
2014,08,20,11,45,20.20
2014,08,20,11,46,20.20
2014,08,20,11,47,20.20
2014,08,20,11,48,20.20
2014,08,20,11,49,20.20
2014,08,20,11,50,20.10
2014,08,20,11,51,20.10
2014,08,20,11,52,20.10
2014,08,20,11,53,20.00
2014,08,20,11,54,20.00
2014,08,20,11,55,20.00
2014,08,20,11,56,20.00
2014,08,20,11,57,19.90
2014,08,20,11,58,19.80
2014,08,20,11,59,19.80
2014,08,20,12,00,19.80
2014,08,20,12,01,19.80
2014,08,20,12,02,19.80
2014,08,20,12,03,19.80
2014,08,20,12,04,19.80
2014,08,20,12,05,19.70
2014,08,20,12,06,19.60
2014,08,20,12,07,19.50
2014,08,20,12,08,19.30
2014,08,20,12,09,19.20
2014,08,20,12,10,19.00
2014,08,20,12,11,18.80
2014,08,20,12,12,18.50
2014,08,20,12,13,18.20
2014,08,20,12,14,18.00
2014,08,20,12,15,17.90
2014,08,20,12,16,17.70
2014,08,20,12,17,17.50
2014,08,20,12,18,17.30
2014,08,20,12,19,17.20
2014,08,20,12,20,17.20
2014,08,20,12,21,17.20
2014,08,20,12,22,17.20
2014,08,20,12,23,17.20
2014,08,20,12,24,17.20
2014,08,20,12,25,17.30
2014,08,20,12,26,17.30
2014,08,20,12,27,17.30
2014,08,20,12,28,17.40
2014,08,20,12,29,17.40
2014,08,20,12,30,17.50
2014,08,20,12,31,17.50
2014,08,20,12,32,17.50
2014,08,20,12,33,17.60
2014,08,20,12,34,17.60
2014,08,20,12,35,17.60
2014,08,20,12,36,17.70
2014,08,20,12,37,17.80
2014,08,20,12,38,17.80
2014,08,20,12,39,17.90
2014,08,20,12,40,17.90
2014,08,20,12,41,18.00
2014,08,20,12,42,18.10
2014,08,20,12,43,18.20
2014,08,20,12,44,18.30
2014,08,20,12,45,18.40
2014,08,20,12,46,18.50
2014,08,20,12,47,18.70
2014,08,20,12,48,18.80
2014,08,20,12,49,18.90
2014,08,20,12,50,19.10
2014,08,20,12,51,19.20
2014,08,20,12,52,19.40
2014,08,20,12,53,19.50
2014,08,20,12,54,19.50
2014,08,20,12,55,19.40
2014,08,20,12,56,19.40
2014,08,20,12,57,19.30
2014,08,20,12,58,19.30
2014,08,20,12,59,19.30
2014,08,20,13,00,19.30
2014,08,20,13,01,19.30
2014,08,20,13,02,19.20
2014,08,20,13,03,19.20
2014,08,20,13,04,19.10
2014,08,20,13,05,19.10
2014,08,20,13,06,19.10
2014,08,20,13,07,19.10
2014,08,20,13,08,19.10
2014,08,20,13,09,19.10
2014,08,20,13,10,19.10
2014,08,20,13,11,19.20
2014,08,20,13,12,19.20
2014,08,20,13,13,19.20
2014,08,20,13,14,19.10
2014,08,20,13,15,19.10
2014,08,20,13,16,19.10
2014,08,20,13,17,19.10
2014,08,20,13,18,19.10
2014,08,20,13,19,19.20
2014,08,20,13,20,19.30
2014,08,20,13,21,19.40
2014,08,20,13,22,19.40
2014,08,20,13,23,19.40
2014,08,20,13,24,19.40
2014,08,20,13,25,19.40
2014,08,20,13,26,19.40
2014,08,20,13,27,19.40
2014,08,20,13,28,19.40
2014,08,20,13,29,19.40
2014,08,20,13,30,19.40
2014,08,20,13,31,19.30
2014,08,20,13,32,19.30
2014,08,20,13,33,19.20
2014,08,20,13,34,19.20
2014,08,20,13,35,19.20
2014,08,20,13,36,19.20
2014,08,20,13,37,19.10
2014,08,20,13,38,19.10
2014,08,20,13,39,19.10
2014,08,20,13,40,19.20
2014,08,20,13,41,19.30
2014,08,20,13,42,19.40
2014,08,20,13,43,19.50
2014,08,20,13,44,19.60
2014,08,20,13,45,19.70
2014,08,20,13,46,19.90
2014,08,20,13,47,20.00
2014,08,20,13,48,20.10
2014,08,20,13,49,20.20
2014,08,20,13,50,20.30
2014,08,20,13,51,20.40
2014,08,20,13,52,20.40
2014,08,20,13,53,20.40
2014,08,20,13,54,20.40
2014,08,20,13,55,20.40
2014,08,20,13,56,20.40
2014,08,20,13,57,20.40
2014,08,20,13,58,20.50
2014,08,20,13,59,20.40
2014,08,20,14,00,20.40
2014,08,20,14,01,20.40
2014,08,20,14,02,20.40
2014,08,20,14,03,20.40
2014,08,20,14,04,20.30
2014,08,20,14,05,20.30
2014,08,20,14,06,20.30
2014,08,20,14,07,20.40
2014,08,20,14,08,20.50
2014,08,20,14,09,20.60
2014,08,20,14,10,20.70
2014,08,20,14,11,20.70
2014,08,20,14,12,20.80
2014,08,20,14,13,20.80
2014,08,20,14,14,20.70
2014,08,20,14,15,20.60
2014,08,20,14,16,20.50
2014,08,20,14,17,20.40
2014,08,20,14,18,20.30
2014,08,20,14,19,20.30
2014,08,20,14,20,20.10
2014,08,20,14,21,19.90
2014,08,20,14,22,19.70
2014,08,20,14,23,19.40
2014,08,20,14,24,19.20
2014,08,20,14,25,19.20
2014,08,20,14,26,19.20
2014,08,20,14,27,19.30
2014,08,20,14,28,19.50
2014,08,20,14,29,19.60
2014,08,20,14,30,19.70
2014,08,20,14,31,19.80
2014,08,20,14,32,19.80
2014,08,20,14,33,19.90
2014,08,20,14,34,20.00
2014,08,20,14,35,20.10
2014,08,20,14,36,20.10
2014,08,20,14,37,20.20
2014,08,20,14,38,20.20
2014,08,20,14,39,20.30
2014,08,20,14,40,20.40
2014,08,20,14,41,20.60
2014,08,20,14,42,20.60
2014,08,20,14,43,20.80
2014,08,20,14,44,20.90
2014,08,20,14,45,21.00
2014,08,20,14,46,21.00
2014,08,20,14,47,21.00
2014,08,20,14,48,21.00
2014,08,20,14,49,21.00
2014,08,20,14,50,20.90
2014,08,20,14,51,20.90
2014,08,20,14,52,20.90
2014,08,20,14,53,20.90
2014,08,20,14,54,20.90
2014,08,20,14,55,20.90
2014,08,20,14,56,20.80
2014,08,20,14,57,20.80
2014,08,20,14,58,20.80
2014,08,20,14,59,20.80
2014,08,20,15,00,20.80
2014,08,20,15,01,20.80
2014,08,20,15,02,20.80
2014,08,20,15,03,20.80
2014,08,20,15,04,20.70
2014,08,20,15,05,20.80
2014,08,20,15,06,20.80
2014,08,20,15,07,20.90
2014,08,20,15,08,20.90
2014,08,20,15,09,20.90
2014,08,20,15,10,20.90
2014,08,20,15,11,20.90
2014,08,20,15,12,20.90
2014,08,20,15,13,20.90
2014,08,20,15,14,21.00
2014,08,20,15,15,21.00
2014,08,20,15,16,21.00
2014,08,20,15,17,21.10
2014,08,20,15,18,21.20
2014,08,20,15,19,21.20
2014,08,20,15,20,21.20
2014,08,20,15,21,21.10
2014,08,20,15,22,21.00
2014,08,20,15,23,20.90
2014,08,20,15,24,20.90
2014,08,20,15,25,20.90
2014,08,20,15,26,21.00
2014,08,20,15,27,21.10
2014,08,20,15,28,21.10
2014,08,20,15,29,21.20
2014,08,20,15,30,21.10
2014,08,20,15,31,21.10
2014,08,20,15,32,21.10
2014,08,20,15,33,21.10
2014,08,20,15,34,21.20
2014,08,20,15,35,21.20
2014,08,20,15,36,21.30
2014,08,20,15,37,21.30
2014,08,20,15,38,21.30
2014,08,20,15,39,21.30
2014,08,20,15,40,21.40
2014,08,20,15,41,21.50
2014,08,20,15,42,21.60
2014,08,20,15,43,21.60
2014,08,20,15,44,21.60
2014,08,20,15,45,21.60
2014,08,20,15,46,21.60
2014,08,20,15,47,21.60
2014,08,20,15,48,21.70
2014,08,20,15,49,21.70
2014,08,20,15,50,21.70
2014,08,20,15,51,21.70
2014,08,20,15,52,21.70
2014,08,20,15,53,21.70
2014,08,20,15,54,21.80
2014,08,20,15,55,21.80
2014,08,20,15,56,21.90
2014,08,20,15,57,21.90
2014,08,20,15,58,21.90
2014,08,20,15,59,21.80
2014,08,20,16,00,21.90
2014,08,20,16,01,21.90
2014,08,20,16,02,21.90
2014,08,20,16,03,21.80
2014,08,20,16,04,21.70
2014,08,20,16,05,21.70
2014,08,20,16,06,21.70
2014,08,20,16,07,21.70
2014,08,20,16,08,21.70
2014,08,20,16,09,21.70
2014,08,20,16,10,21.70
2014,08,20,16,11,21.70
2014,08,20,16,12,21.70
2014,08,20,16,13,21.60
2014,08,20,16,14,21.60
2014,08,20,16,15,21.60
2014,08,20,16,16,21.60
2014,08,20,16,17,21.70
2014,08,20,16,18,21.70
2014,08,20,16,19,21.80
2014,08,20,16,20,21.80
2014,08,20,16,21,21.90
2014,08,20,16,22,21.90
2014,08,20,16,23,21.90
2014,08,20,16,24,22.00
2014,08,20,16,25,22.00
2014,08,20,16,26,22.10
2014,08,20,16,27,22.10
2014,08,20,16,28,22.10
2014,08,20,16,29,22.00
2014,08,20,16,30,22.00
2014,08,20,16,31,22.00
2014,08,20,16,32,22.00
2014,08,20,16,33,22.00
2014,08,20,16,34,21.90
2014,08,20,16,35,21.90
2014,08,20,16,36,21.90
2014,08,20,16,37,21.80
2014,08,20,16,38,21.90
2014,08,20,16,39,21.90
2014,08,20,16,40,21.80
2014,08,20,16,41,21.90
2014,08,20,16,42,21.90
2014,08,20,16,43,21.90
2014,08,20,16,44,21.80
2014,08,20,16,45,21.80
2014,08,20,16,46,21.90
2014,08,20,16,47,21.90
2014,08,20,16,48,21.90
2014,08,20,16,49,21.90
2014,08,20,16,50,21.80
2014,08,20,16,51,21.80
2014,08,20,16,52,21.70
2014,08,20,16,53,21.70
2014,08,20,16,54,21.70
2014,08,20,16,55,21.70
2014,08,20,16,56,21.70
2014,08,20,16,57,21.80
2014,08,20,16,58,21.80
2014,08,20,16,59,21.80
2014,08,20,17,00,21.80
2014,08,20,17,01,21.90
2014,08,20,17,02,21.90
2014,08,20,17,03,22.00
2014,08,20,17,04,22.00
2014,08,20,17,05,22.00
2014,08,20,17,06,22.00
2014,08,20,17,07,22.00
2014,08,20,17,08,21.90
2014,08,20,17,09,21.90
2014,08,20,17,10,21.90
2014,08,20,17,11,21.90
2014,08,20,17,12,21.90
2014,08,20,17,13,22.00
2014,08,20,17,14,22.10
2014,08,20,17,15,22.10
2014,08,20,17,16,22.10
2014,08,20,17,17,22.10
2014,08,20,17,18,22.10
2014,08,20,17,19,22.00